Weather History for Ponca City, OK

Change the Weather History Date:

Monday, February 4, 2013

  Actual Average Record
Temperature  
Mean Temperature 50 °F -  
Max Temperature 64 °F 55 °F 75 °F (2008)
Min Temperature 35 °F 28 °F 8 °F (2011)
Degree Days  
Heating Degree Days 16    
Moisture  
Dew Point 29 °F    
Average Humidity 47    
Maximum Humidity 76    
Minimum Humidity 22    
Precipitation  
Precipitation 0.00 in - - ()
Sea Level Pressure  
Sea Level Pressure 29.88 in    
Wind  
Wind Speed 7 mph (NNE)    
Max Wind Speed 14 mph    
Max Gust Speed 20 mph    
Visibility 10 miles    
Events      
Averages and records for this station are not official NWS values.
T = Trace of Precipitation, MM = Missing Value Source: NWS Daily Summary

Daily Weather History Graph

Daily Weather History Graph

Search for Another Location

Airport:

Trip Planner

Search our weather history database for the weather conditions in past years. The results will help you decide how hot, cold, wet, or windy it might be!

Date:

Astronomy

Feb. 04, 2013 Rise Set
Actual Time 7:27 AM CST 5:57 PM CST
Civil Twilight 7:00 AM CST 6:24 PM CST
Nautical Twilight 6:29 AM CST 6:55 PM CST
Astronomical Twilight 5:59 AM CST 7:25 PM CST
Moon 2:02 AM CST (2/4) 12:24 PM CST (2/4)
Length of Visible Light 11h 24m
Length of Day
10h 30m
Last Quarter, 37% of the Moon is Illuminated
Feb 4
Last Quarter
Feb 10
New
Feb 17
First Quarter
Feb 25
Full
Mar 4
Last Quarter

Hourly Weather History & Observations

Time (CST) Temp. Windchill Dew Point Humidity Pressure Visibility Wind Dir Wind Speed Gust Speed Precip Events Conditions
12:53 AM 52.0 °F - 28.9 °F 41% 29.85 in 10.0 mi South 10.4 mph 19.6 mph N/A   Clear
1:53 AM 52.0 °F - 30.0 °F 43% 29.83 in 10.0 mi South 9.2 mph - N/A   Clear
2:53 AM 52.0 °F - 30.0 °F 43% 29.81 in 10.0 mi South 8.1 mph - N/A   Clear
4:53 AM 51.1 °F - 30.0 °F 44% 29.79 in 10.0 mi South 6.9 mph - N/A   Clear
5:53 AM 50.0 °F - 30.9 °F 48% 29.81 in 10.0 mi Calm Calm - N/A   Clear
6:53 AM 44.1 °F - 30.9 °F 60% 29.84 in 10.0 mi Calm Calm - N/A   Clear
7:53 AM 36.0 °F 33.3 °F 28.9 °F 76% 29.86 in 10.0 mi North 3.5 mph - N/A   Clear
8:53 AM 42.1 °F - 33.1 °F 70% 29.87 in 10.0 mi Calm Calm - N/A   Clear
9:53 AM 53.1 °F - 30.9 °F 43% 29.87 in 10.0 mi NNE 10.4 mph - N/A   Clear
10:53 AM 55.0 °F - 30.9 °F 40% 29.89 in 10.0 mi North 8.1 mph - N/A   Clear
11:53 AM 59.0 °F - 30.0 °F 33% 29.89 in 10.0 mi North 9.2 mph - N/A   Clear
12:53 PM 61.0 °F - 30.0 °F 31% 29.87 in 10.0 mi North 13.8 mph - N/A   Clear
1:53 PM 62.1 °F - 28.0 °F 28% 29.86 in 10.0 mi NNE 13.8 mph - N/A   Clear
2:53 PM 64.0 °F - 28.0 °F 26% 29.85 in 10.0 mi NNE 13.8 mph 18.4 mph N/A   Clear
3:53 PM 64.0 °F - 24.1 °F 22% 29.86 in 10.0 mi North 12.7 mph - N/A   Clear
4:53 PM 62.1 °F - 23.0 °F 22% 29.87 in 10.0 mi NNE 12.7 mph - N/A   Clear
5:53 PM 55.9 °F - 28.0 °F 34% 29.88 in 10.0 mi NNE 5.8 mph - N/A   Clear
6:53 PM 48.9 °F - 28.9 °F 46% 29.92 in 10.0 mi ENE 5.8 mph - N/A   Clear
7:53 PM 46.9 °F - 28.0 °F 48% 29.94 in 10.0 mi ENE 6.9 mph - N/A   Clear
8:53 PM 41.0 °F - 28.9 °F 62% 29.95 in 10.0 mi Calm Calm - N/A   Clear
9:53 PM 35.1 °F 30.1 °F 28.0 °F 76% 29.97 in 10.0 mi North 5.8 mph - N/A   Clear
10:53 PM 36.0 °F - 28.0 °F 73% 29.97 in 10.0 mi Calm Calm - N/A   Clear
11:53 PM 35.1 °F - 28.0 °F 76% 29.96 in 10.0 mi Calm Calm - N/A   Clear